Regional Weather Roundup
Issued by NWS Bismarck, ND

Home | Current Version | Previous Version | Text Only | Print | Product List | Glossary On
Versions: 1 2 3 4 5 6 7 8 9 10 11 12 13 14 15 16 17 18 19 20 21 22 23 24 25 26 27 28 29 30 31 32 33 34 35 36 37 38 39 40 41 42 43 44 45 46 47 48 49 50
000
ASUS43 KBIS 062101
RWRBIS

NWR BROADCAST TEXT
NATIONAL WEATHER SERVICE BISMARCK ND
400 PM CDT WED MAY 06 2015

NOTE: "FAIR" INDICATES FEW OR NO CLOUDS BELOW 12,000 FEET WITH NO
SIGNIFICANT WEATHER AND/OR OBSTRUCTIONS TO VISIBILITY.


CITY           SKY/WX    TMP DP  RH WIND       PRES   REMARKS
WILLISTON      LGT RAIN  56  52  86 N20G28    29.69S
MINOT          LGT RAIN  62  60  93 E16       29.65F FOG
MINOT AFB      CLOUDY    63  63 100 SE16      29.64F
BISMARCK       PTSUNNY   67  59  75 S20       29.65F
DICKINSON      LGT RAIN  61  56  83 N6        29.64F
GARRISON         N/A     62  60  93 CALM      29.65F
HETTINGER ARPT CLOUDY    64  54  69 CALM      29.65F
JAMESTOWN      RAIN      62  60  93 SE14      29.73S FOG
CARRINGTON       N/A     61  61 100 SE18      29.73F
HAZEN          MOCLDY    63  61  94 NW7       29.65F
OAKES            N/A     61  61 100 E21       29.71F FOG
STANLEY        RAIN      57  57 100 NW9       29.69S
$$

CITY           SKY/WX    TMP DP  RH WIND       PRES   REMARKS
GRAND FORKS    LGT RAIN  63  61  93 SE14      29.80F FOG
GRAND FORKS AF NOT AVBL
DEVILS LAKE    CLOUDY    61  55  82 SE18      29.74F
FARGO          LGT RAIN  65  60  84 E13       29.76F
CAVALIER       CLOUDY    63  63 100 SE12G20   29.79F FOG
GRAFTON        CLOUDY    63  63 100 SE17      29.81F FOG
GWINNER        CLOUDY    63  63 100 E16       29.74F
LANGDON        CLOUDY    61  59  94 SE18G25   29.79S FOG
WALHALLA       MOCLDY    61  61 100 SE15G23   29.79F
$$

CITY           SKY/WX    TMP DP  RH WIND       PRES   REMARKS
ABERDEEN       CLOUDY    66  62  87 SE14      29.66F
MOBRIDGE       CLOUDY    69  62  78 SE14      29.60F
BUFFALO          N/A     58  55  90 NW20G25   29.60F
RAPID CITY     CLOUDY    68  51  54 SW3       29.60F
GLASGOW        PTSUNNY   57  41  55 NW23      29.82S
SIDNEY         CLOUDY    55  50  82 NW20      29.72R
WOLF POINT     CLOUDY    58  43  57 NW17G24   29.79R
GLENDIVE       CLOUDY    54  48  82 NW24G32   29.74R
MILES CITY     LGT RAIN  49  46  90 NW16G28   29.80R
BAKER          LGT RAIN  52  51  97 NW23G30   29.72R
$$

CITY           SKY/WX    TMP DP  RH WIND       PRES   REMARKS
BILLINGS       CLOUDY    57  30  35 N10       29.88F
GREAT FALLS    MOSUNNY   55  25  31 N9        29.93S
$$




USA.gov is the U.S. government's official web portal to all federal, state and local government web resources and services.